{"data":{"norad_id":68193,"intl_designator":"2026-050AC","name":"STARLINK-37090","alt_names":[],"object_type":"PAYLOAD","status":"ACTIVE","operator":null,"country":"US","launch_date":"2026-03-14","launch_site_code":"AFETR","launch_vehicle":null,"mission":null,"orbit_class":"UNKNOWN","rcs_meters":null,"size_class":null,"mass_kg":null,"dimensions":null,"purposes":["comms"],"wikipedia_slug":null,"has_3d_model":false,"image_url":null,"decayed_at":null,"tle_current":{"epoch":"2026-05-24T16:10:28.760736Z","epoch_age_seconds":113710,"freshness":"FRESH","line1":"1 68193U 26050AC  26144.67394399  .00018648  00000+0  56168-3 0  9992","line2":"2 68193  53.1602 273.3080 0000918  94.4347 265.6761 15.34399693 12321","mean_motion":15.34399693,"eccentricity":9.18e-5,"inclination_deg":53.1602,"raan_deg":273.308,"arg_perigee_deg":94.4347,"mean_anomaly_deg":265.6761,"bstar":0.00056168,"rev_number":1232,"period_min":93.84777685823,"perigee_km":462.07616345814,"apogee_km":463.33214189377,"semimajor_km":6840.841152676,"source":"CELESTRAK","updated_at":"2026-05-25T13:38:21.876113Z"}}}